DW8522 Weather Reports


time (UTC)temp
C
wind
direction
speed
KPH
gust
KPH
rain 1hr
cm
rain 24hr
cm
rain mn
cm
humidity
%
barometer
mb
20260509083037 16 169 0.0 3.2 0.00 0.71 0.66 88 1003.2
20260509081537 16 135 0.0 4.8 0.00 0.71 0.66 87 1003.0
20260509080043 16 214 1.6 6.4 0.00 0.71 0.66 87 1003.0
20260509074538 16 305 3.2 9.7 0.00 0.71 0.66 87 1003.0
20260509073039 16 212 1.6 6.4 0.00 0.71 0.66 87 1003.0
20260509071534 15 134 0.0 4.8 0.00 0.71 0.66 87 1003.1
20260509070034 16 158 0.0 4.8 0.00 0.71 0.66 86 1003.1
20260509064541 15 183 1.6 3.2 0.00 0.71 0.66 88 1003.0
20260509063036 15 142 0.0 1.6 0.00 0.71 0.66 88 1002.9
20260509061534 15 142 0.0 0.0 0.00 0.71 0.66 87 1003.0
20260509060033 16 143 0.0 3.2 0.00 0.71 0.66 87 1002.9
20260509054537 16 120 0.0 1.6 0.00 0.71 0.66 86 1002.6
20260509053031 17 215 0.0 6.4 0.00 0.71 0.66 85 1002.6
20260509051530 17 233 3.2 8.0 0.00 0.71 0.66 84 1002.6
20260509050030 17 131 3.2 9.7 0.00 0.71 0.66 82 1002.8
20260509044528 17 249 1.6 4.8 0.00 0.71 0.66 80 1002.8
20260509043026 18 183 0.0 4.8 0.00 0.71 0.66 79 1002.9
20260509041525 18 178 1.6 8.0 0.00 0.71 0.66 78 1002.9
20260509040035 18 332 4.8 9.7 0.00 0.71 0.66 79 1003.0
20260509034524 18 177 1.6 14.5 0.00 0.71 0.66 77 1002.9
20260509033023 19 135 4.8 9.7 0.00 0.71 0.66 76 1003.0
20260509031527 20 248 4.8 16.1 0.00 0.71 0.66 74 1002.9
20260509030018 20 325 6.4 14.5 0.00 0.71 0.66 75 1003.0
20260509024517 20 249 3.2 8.0 0.00 0.84 0.66 74 1003.2
20260509023015 19 316 1.6 8.0 0.00 0.84 0.66 80 1003.2
20260509021517 19 81 6.4 12.9 0.00 0.84 0.66 77 1003.3
20260509020012 19 193 4.8 9.7 0.00 0.84 0.66 78 1003.5
20260509014527 18 188 3.2 9.7 0.00 0.84 0.66 81 1003.6
20260509013009 18 187 1.6 6.4 0.00 0.84 0.66 80 1003.7
20260509011505 18 284 3.2 9.7 0.00 0.84 0.66 79 1004.0
20260509010003 20 218 6.4 17.7 0.00 0.84 0.66 72 1004.2
20260509004612 20 268 4.8 8.0 0.00 1.09 0.66 74 1004.2
20260509003103 20 173 3.2 11.3 0.00 1.09 0.66 76 1004.5
20260509001553 18 231 3.2 9.7 0.00 1.09 0.66 78 1004.8
20260509000051 18 245 6.4 17.7 0.00 1.09 0.66 76 1005.0
20260508234554 19 238 6.4 12.9 0.00 1.12 0.66 76 1005.2
20260508233054 20 229 6.4 12.9 0.00 1.12 0.66 76 1005.4
20260508231550 19 302 4.8 11.3 0.00 1.12 0.66 78 1005.6
20260508230117 19 284 4.8 12.9 0.00 1.12 0.66 79 1005.8
20260508224549 19 89 3.2 14.5 0.00 1.12 0.66 80 1006.0
20260508223044 19 5 4.8 16.1 0.00 1.12 0.66 82 1006.1
20260508221541 18 101 3.2 11.3 0.00 1.12 0.66 85 1006.1
20260508220109 18 285 3.2 11.3 0.00 1.12 0.66 88 1006.1
20260508214539 17 89 4.8 11.3 0.00 1.12 0.66 91 1006.2
20260508213038 17 221 3.2 9.7 0.00 1.12 0.66 95 1006.3
20260508211542 16 152 0.0 4.8 0.00 1.12 0.66 96 1006.3
20260508210036 15 191 1.6 6.4 0.00 1.12 0.66 96 1006.2
20260508204535 15 149 0.0 4.8 0.00 1.12 0.66 96 1006.3
20260508203034 15 108 0.0 3.2 0.00 1.12 0.66 97 1006.3
20260508201535 15 170 0.0 1.6 0.00 1.12 0.66 97 1006.3
20260508200035 14 170 0.0 8.0 0.00 1.12 0.66 97 1006.2
20260508194535 14 124 0.0 0.0 0.00 1.12 0.66 97 1006.1
20260508193031 13 124 0.0 0.0 0.00 1.12 0.66 97 1006.0
20260508191531 14 124 0.0 3.2 0.00 1.12 0.66 97 1006.0
20260508190034 13 108 0.0 4.8 0.00 1.12 0.66 96 1005.8
20260508184539 14 121 0.0 3.2 0.00 1.12 0.66 97 1005.8
20260508183027 13 122 0.0 1.6 0.00 1.12 0.66 96 1005.8
20260508181535 14 121 0.0 0.0 0.00 1.12 0.66 96 1005.8
20260508180022 15 121 0.0 1.6 0.00 1.12 0.66 96 1005.9
20260508174530 15 121 0.0 1.6 0.00 1.12 0.66 96 1005.8
20260508173018 15 120 0.0 1.6 0.00 1.12 0.66 96 1005.8
20260508171517 15 335 3.2 9.7 0.00 1.12 0.66 96 1005.7
20260508170016 15 124 0.0 1.6 0.00 1.12 0.66 96 1005.4
20260508164515 15 124 0.0 1.6 0.03 1.12 0.66 96 1005.2
20260508163017 15 124 0.0 1.6 0.03 1.12 0.66 96 1005.2
20260508161513 15 125 0.0 3.2 0.05 1.12 0.66 96 1005.6
20260508160009 15 123 0.0 0.0 0.08 1.12 0.66 96 1005.6
20260508154509 15 122 0.0 1.6 0.13 1.09 0.64 96 1005.7
20260508153005 15 120 0.0 1.6 0.13 1.09 0.64 96 1006.0
20260508151505 15 121 0.0 1.6 0.15 1.09 0.61 96 1006.5
20260508150004 15 121 0.0 1.6 0.53 1.04 0.58 95 1006.6
20260508144502 16 183 0.0 4.8 0.51 0.99 0.51 95 1006.4
20260508143100 16 161 1.6 6.4 0.51 0.99 0.51 95 1006.6
20260508141600 16 68 4.8 16.1 0.46 0.97 0.48 94 1006.9
20260508140051 17 285 6.4 24.1 0.03 0.51 0.05 93 1006.8
20260508134559 18 32 11.3 29.0 0.00 0.61 0.03 94 1006.0
20260508133047 18 271 11.3 29.0 0.03 0.61 0.03 94 1006.3
20260508131545 18 337 14.5 27.4 0.03 0.61 0.03 93 1006.5
20260508130041 18 35 9.7 25.7 0.03 0.61 0.03 93 1006.7
20260508124540 18 96 12.9 20.9 0.03 0.71 0.03 93 1006.7
20260508123037 18 134 8.0 20.9 0.00 0.69 0.00 93 1006.7
20260508121540 18 28 11.3 22.5 0.00 0.69 0.00 93 1007.5
20260508120031 18 68 9.7 20.9 0.00 0.69 0.00 93 1007.8
20260508114529 18 84 6.4 19.3 0.00 0.69 0.69 93 1008.1
20260508113028 18 8 6.4 14.5 0.05 0.69 0.69 93 1008.4
20260508111526 18 86 6.4 17.7 0.05 0.69 0.69 94 1008.5
20260508110024 18 70 4.8 17.7 0.05 0.69 0.69 94 1009.1
20260508104523 18 25 6.4 12.9 0.05 0.69 0.69 93 1009.1
20260508103025 18 25 8.0 25.7 0.03 0.64 0.64 92 1009.7
20260508101521 18 239 8.0 16.1 0.00 0.61 0.61 93 1009.9
20260508100019 18 311 3.2 14.5 0.00 0.61 0.61 93 1010.1
20260508094515 18 113 3.2 16.1 0.00 0.61 0.61 92 1010.3
20260508093014 18 295 6.4 24.1 0.00 0.61 0.61 92 1010.2
20260508091512 18 113 8.0 19.3 0.00 0.61 0.61 93 1010.5
20260508090010 18 70 3.2 14.5 0.00 0.61 0.61 93 1010.6
20260508084508 18 168 4.8 17.7 0.00 0.61 0.61 94 1010.9